Вернуться в каталог

IRIDIUM 167

АктивенСвязьPO
NORAD 43931·PAYLOAD·🇺🇸 United States

Запущен Jan 11, 2019 с Vandenberg Space Force Base

Loading…

Ближайшие Пролёты (ближайшие 24 часа)

TLE

СвежийSource: CelesTrak SupGP

Эпоха: Sep 14, 2026, 20:37 UTC

1 43931C 19002K   26257.85937500 -.00001060  00000+0 -37903-3 0  2571
2 43931  86.3975 316.1312 0002095  90.8156 176.8306 14.34217825    11

Отслеживайте IRIDIUM 167 в реальном времени с AllMySat

Download on the App Store